Weather observations for the past three days for
Phillips Army Air Field / Aberdeen
Imperial (Metric)
Date Time (edt) Wind (mph) Vis. (mi.) Weather Sky Cond. Temperature (ºF) Relative Humidity Wind Chill (°F) Heat Index (°F) Pressure Precipitation (in)
Air Dwpt 6 hour altimeter (in) sea level (mb) 1 hr 3 hr 6 hr
Max. Min.
22 05:57 Calm 10.00 Overcast OVC007 75.6 73.6 94% 75 30.06 1018.1
19 16:55 Calm 10.00 Partly Cloudy SCT040 82.4 60.8 48% 83 30.09 0.0
19 15:55 S 7 10.00 Partly Cloudy SCT040 82.9 61.2 48% 83 30.11 1019.9
19 14:55 S 5 10.00 Partly Cloudy SCT040 82.8 62.2 50% 84 30.12 1020.2
19 13:55 S 9 10.00 A Few Clouds FEW030 83.1 63.7 83.5 72 52% 84 30.13 1020.5
19 12:55 Calm 10.00 Fair CLR 81.3 60.8 50% 82 30.14 1020.9
19 11:55 E 3 10.00 A Few Clouds FEW200 80.6 60.3 50% 81 30.14 1020.9
19 10:55 E 3 10.00 Fair CLR 79.2 59.9 52% 80 30.14 1020.9
19 09:55 Calm 10.00 Fair CLR 76.6 57.7 52% 78 30.14 1020.9
19 08:55 NE 10 10.00 A Few Clouds FEW100 75.6 57.7 54% 78 30.14 1020.9
19 07:55 N 6 10.00 A Few Clouds FEW080 71.8 59.4 71.8 65.8 65% 30.13 1020.5
19 06:55 N 3 10.00 Partly Cloudy SCT100 68.2 61.7 80% 30.1 1019.5
Date Time (edt) Wind (mph) Vis. (mi.) Weather Sky Cond. Air Dwpt Max. Min. Relative Humidity Wind Chill (°F) Heat Index (°F) altimeter (in) sea level (mb) 1 hr 3 hr 6 hr
6 hour
Temperature (ºF) Pressure Precipitation (in)